Location: Fredericton
(45.9636°N, 66.6431°W)
Time: 18:29:34
(UTC-04:00)

N. Korean satellite - Visible Passes

Search period start: 28 January 2022 00:00
Search period end: 07 February 2022 00:00
Orbit: 447 x 490 km, 97.3° (Epoch: 28 January)

Date Brightness Start Highest point End Pass type
(mag) Time Alt. Az. Time Alt. Az. Time Alt. Az.
28 Jan 7.2 05:30:51 10° NNE 05:34:26 55° E 05:35:52 31° SSE visible
28 Jan 8.4 07:05:30 10° NW 07:07:07 13° WNW 07:08:43 10° W visible
29 Jan 8.9 05:02:02 10° NE 05:05:04 24° E 05:06:50 17° SE visible
29 Jan 7.6 06:35:08 10° NNW 06:38:09 25° WNW 06:40:54 11° WSW visible
30 Jan 9.9 04:34:18 10° ENE 04:35:34 11° E 04:36:51 10° ESE visible
30 Jan 6.6 06:05:28 10° N 06:09:02 53° WNW 06:11:54 15° SSW visible
31 Jan 6.9 05:36:09 10° NNE 05:39:48 64° ESE 05:43:00 12° S visible
31 Jan 8.6 07:11:21 10° NW 07:12:24 11° WNW 07:13:25 10° WNW visible
01 Feb 8.6 05:07:13 10° NE 05:10:24 28° E 05:13:32 10° SSE visible
01 Feb 7.8 06:40:34 10° NNW 06:43:23 22° WNW 06:46:12 10° WSW visible
02 Feb 9.8 04:39:05 10° ENE 04:40:53 13° E 04:42:39 10° ESE visible
02 Feb 6.8 06:10:47 10° N 06:14:16 45° WNW 06:17:43 10° SW visible
03 Feb 6.6 05:41:21 10° NNE 05:45:00 76° ESE 05:48:35 10° S visible
04 Feb 8.3 05:12:18 10° NNE 05:15:36 32° E 05:18:50 10° SSE visible
04 Feb 8.0 06:45:53 10° NNW 06:48:31 19° WNW 06:51:07 10° WSW visible
05 Feb 9.6 04:43:54 10° NE 04:46:02 15° E 04:48:11 10° SE visible
05 Feb 7.0 06:15:58 10° N 06:19:22 39° WNW 06:22:43 10° SW visible
06 Feb 6.5 05:46:26 10° NNE 05:50:05 88° E 05:53:39 10° SSW visible
